Location: Skoghall
(59.3232°N, 13.4653°E)
Time: 14:16:59
(UTC+01:00)

ISS - Pass Details

Date: 03 December 2021
Orbit: 413 x 422 km, 51.6° (Epoch: 18 January)

Event Time Altitude Azimuth Distance (km) Brightness Sun altitude
Rises 17:00:35 0° 257° (WSW) 2,386 2.0 -12.2°
Reaches altitude 10° 17:03:01 10° 241° (WSW) 1,518 0.6 -12.5°
Maximum altitude 17:05:37 21° 191° (S) 1,026 -1.4 -12.8°
Drops below altitude 10° 17:08:14 10° 140° (SE) 1,511 -1.1 -13.1°
Enters shadow 17:09:21 - 131° (SE) 1,889 -0.7 -13.2°
